AZERSPACE 2 (IS-38)

Last updated on Jan. 27, 2020, 4:38 a.m. UTC

1 43632U 18074A   20026.85730601  .00000130  00000-0  00000-0 0  9992
2 43632   0.0181  70.0562 0001177 235.2176 174.0643  1.00271502  5112
UTC
Height (km)
Latitude
Longitude
Inclination
Orbital Period
UTC large
Height (km)
Speed (km/s)
/
Latitude / Longitude
Inclination (degrees)
Orbital Period (minutes)
Azimuth
Elevation
Range (km)
Doppler Factor
iOS Compass Heading
iOS Angle

Next 30 passes for location: Hong Kong

Rise time Rise Azimuth (degrees) Set time Set Azimuth (degrees) Duration Max altitude (degrees)

No matching passes for this satellites